Location: Plainartige
(45.6866°N, 1.7993°E)
Time: 13:30:54
(UTC+00:00)

USA 308 - Pass Details

Date: 03 March 2021
Orbit: 571 x 574 km, 54.0° (Epoch: 10 April)

Event Time Altitude Azimuth Distance (km) Brightness Sun altitude
Rises 20:06:26 0° 298° (WNW) 2,781 7.7 -25.6°
Reaches altitude 10° 20:08:55 10° 309° (NW) 1,881 6.4 -26.1°
Enters shadow 20:12:07 28° 356° (N) 1,081 4.4 -26.6°
